Page, AZ

5:06 PM MDT on July 23, 2017 (GMT -0600)
Page Municipal

Weather History for KPGA - July, 2013

Change the Weather History Date:

Wednesday, July 10, 2013

  Actual Average Record
Temperature  
Mean Temperature 91 °F -  
Max Temperature 107 °F 95 °F 107 °F (1976)
Min Temperature 75 °F 69 °F 63 °F (2015)
Cooling Degree Days 26    
Growing Degree Days 41 (Base 50)    
Moisture  
Dew Point 30 °F    
Average Humidity 11    
Maximum Humidity 28    
Minimum Humidity 4    
Precipitation  
Precipitation 0.00 in - - ()
Sea Level Pressure  
Sea Level Pressure 29.79 in    
Wind  
Wind Speed 4 mph (South)    
Max Wind Speed 17 mph    
Max Gust Speed 22 mph    
Visibility 10 miles    
Events      
Averages and records for this station are not official NWS values.
T = Trace of Precipitation, MM = Missing Value Source: NWS Daily Summary

Daily Weather History Graph

Daily Weather History Graph

Search for Another Location

Airport or City:

Trip Planner

Search our weather history database for the weather conditions in past years. The results will help you decide how hot, cold, wet, or windy it might be!

Date:

Astronomy

Jul. 10, 2013 Rise Set
Actual Time 5:15 AM MST 7:47 PM MST
Civil Twilight 4:44 AM MST 8:17 PM MST
Nautical Twilight 4:07 AM MST 8:54 PM MST
Astronomical Twilight 3:25 AM MST 9:36 PM MST
Moon 7:34 AM MST (7/10) 9:04 PM MST (7/10)
Length of Visible Light 15h 32m
Length of Day
14h 31m
Waxing Crescent, 6% of the Moon is Illuminated
Jul 10
Waxing Crescent
Jul 15
First Quarter
Jul 22
Full
Jul 29
Last Quarter
Aug 6
New

Hourly Weather History & Observations

Time (MST) Temp. Dew Point Humidity Pressure Visibility Wind Dir Wind Speed Gust Speed Precip Events Conditions
12:53 AM 86.0 °F 28.0 °F 12% 29.84 in 10.0 mi Calm Calm - N/A   Clear
1:53 AM 86.0 °F 28.0 °F 12% 29.83 in 10.0 mi West 3.5 mph - N/A   Clear
2:53 AM 81.0 °F 30.9 °F 16% 29.84 in 10.0 mi Calm Calm - N/A   Clear
3:53 AM 79.0 °F 30.9 °F 17% 29.85 in 10.0 mi WSW 4.6 mph - N/A   Clear
4:53 AM 77.0 °F 28.0 °F 17% 29.85 in 10.0 mi SSE 4.6 mph - N/A   Clear
5:53 AM 75.0 °F 28.0 °F 18% 29.86 in 10.0 mi ESE 5.8 mph - N/A   Clear
6:53 AM 80.1 °F 28.9 °F 15% 29.87 in 10.0 mi SE 4.6 mph - N/A   Clear
7:53 AM 86.0 °F 28.9 °F 13% 29.88 in 10.0 mi ESE 4.6 mph - N/A   Clear
8:53 AM 89.1 °F 28.9 °F 12% 29.88 in 10.0 mi Calm Calm - N/A   Clear
9:53 AM 91.9 °F 28.9 °F 11% 29.86 in 10.0 mi Calm Calm - N/A   Clear
10:53 AM 96.1 °F 28.0 °F 9% 29.85 in 10.0 mi Variable 4.6 mph - N/A   Clear
11:53 AM 100.9 °F 27.0 °F 7% 29.82 in 10.0 mi ENE 4.6 mph - N/A   Clear
12:53 PM 102.0 °F 27.0 °F 7% 29.80 in 10.0 mi Variable 3.5 mph - N/A   Clear
1:53 PM 104.0 °F 28.0 °F 7% 29.77 in 10.0 mi ENE 6.9 mph - N/A   Clear
2:53 PM 106.0 °F 28.0 °F 7% 29.74 in 10.0 mi NNE 8.1 mph - N/A   Clear
3:53 PM 107.1 °F 28.0 °F 6% 29.71 in 10.0 mi Variable 6.9 mph - N/A   Clear
4:53 PM 104.0 °F 27.0 °F 7% 29.69 in 10.0 mi Variable 3.5 mph - N/A   Clear
5:53 PM 102.0 °F 28.9 °F 8% 29.69 in 10.0 mi Calm Calm - N/A   Clear
6:53 PM 100.9 °F 30.0 °F 8% 29.69 in 10.0 mi South 9.2 mph - N/A   Clear
7:53 PM 99.0 °F 30.9 °F 9% 29.70 in 10.0 mi WSW 9.2 mph - N/A   Clear
8:53 PM 98.1 °F 30.9 °F 9% 29.72 in 10.0 mi Calm Calm - N/A   Clear
9:53 PM 95.0 °F 36.0 °F 13% 29.73 in 10.0 mi West 4.6 mph - N/A   Clear
10:53 PM 91.9 °F 39.0 °F 16% 29.76 in 10.0 mi South 17.3 mph 21.9 mph N/A   Clear
11:53 PM 87.1 °F 50.0 °F 28% 29.75 in 8.0 mi SSW 11.5 mph 18.4 mph N/A   Clear